When you browse on this site, cookies collect data to enhance your experience and personalize the content and advertising you see.
Visit our Privacy Policy to learn more. By continuing to use the site, you agree to this use of cookies and data.
  • In Schweiz
  • Länderverzeichnis
  • Für 7 Tage
  • Wassertemperatur
  • Wetterkarte
  • Widgets
  • user-avatar
    Anmelden

    Stündliche Wetter Murzinki

    Heute, 15 September, Sonntag

    Zeit Temperatur Niederschläge Wind Luftdruck Luftfeuchtigkeit
    00:00 +8°C° 0 mm 2 m/S 751 mmHg 84%
    01:00 +8°C° 0 mm 2 m/S 751 mmHg 85%
    02:00 +8°C° 0 mm 3 m/S 751 mmHg 86%
    03:00 +7°C° 0 mm 3 m/S 751 mmHg 86%
    04:00 +7°C° 0 mm 2 m/S 751 mmHg 87%
    05:00 +6°C° 0 mm 2 m/S 751 mmHg 88%
    06:00 +6°C° 0 mm 2 m/S 751 mmHg 89%
    07:00 +8°C° 0 mm 3 m/S 751 mmHg 83%
    08:00 +9°C° 0 mm 3 m/S 751 mmHg 77%
    09:00 +11°C° 0 mm 4 m/S 751 mmHg 70%
    10:00 +12°C° 0.1 mm 4 m/S 751 mmHg 66%
    11:00 +12°C° 0.1 mm 4 m/S 751 mmHg 61%
    12:00 +13°C° 0.1 mm 5 m/S 750 mmHg 57%
    13:00 +14°C° 0.1 mm 5 m/S 750 mmHg 54%
    14:00 +14°C° 0.1 mm 5 m/S 750 mmHg 52%
    15:00 +15°C° 0.1 mm 5 m/S 750 mmHg 50%
    16:00 +14°C° 0 mm 4 m/S 750 mmHg 54%
    17:00 +13°C° 0 mm 4 m/S 749 mmHg 58%
    18:00 +12°C° 0 mm 3 m/S 749 mmHg 62%
    19:00 +11°C° 0 mm 3 m/S 749 mmHg 62%
    20:00 +11°C° 0 mm 3 m/S 749 mmHg 63%
    21:00 +10°C° 0 mm 3 m/S 748 mmHg 63%
    22:00 +10°C° 0.1 mm 4 m/S 748 mmHg 64%
    23:00 +10°C° 0.1 mm 4 m/S 747 mmHg 65%

    Morgen, 16 September, Montag

    Zeit Temperatur Niederschläge Wind Luftdruck Luftfeuchtigkeit
    00:00 +9°C° 0.1 mm 5 m/S 747 mmHg 65%
    01:00 +9°C° 0.6 mm 5 m/S 746 mmHg 73%
    02:00 +8°C° 0.6 mm 6 m/S 745 mmHg 81%
    03:00 +8°C° 0.6 mm 7 m/S 745 mmHg 89%
    04:00 +8°C° 0.2 mm 7 m/S 744 mmHg 89%
    05:00 +9°C° 0.2 mm 7 m/S 743 mmHg 88%
    06:00 +9°C° 0.2 mm 7 m/S 742 mmHg 87%
    07:00 +9°C° 0.1 mm 7 m/S 742 mmHg 87%
    08:00 +9°C° 0.1 mm 7 m/S 742 mmHg 86%
    09:00 +10°C° 0.1 mm 8 m/S 741 mmHg 85%
    10:00 +10°C° 0.3 mm 8 m/S 741 mmHg 85%
    11:00 +10°C° 0.3 mm 8 m/S 740 mmHg 84%
    12:00 +11°C° 0.3 mm 8 m/S 740 mmHg 83%
    13:00 +11°C° 0.3 mm 8 m/S 740 mmHg 81%
    14:00 +12°C° 0.3 mm 8 m/S 739 mmHg 79%
    15:00 +12°C° 0.3 mm 8 m/S 739 mmHg 77%
    16:00 +12°C° 0.2 mm 7 m/S 739 mmHg 76%
    17:00 +11°C° 0.2 mm 6 m/S 739 mmHg 74%
    18:00 +12°C° 0.2 mm 5 m/S 739 mmHg 73%
    19:00 +10°C° 0 mm 5 m/S 739 mmHg 74%
    20:00 +10°C° 0 mm 5 m/S 739 mmHg 76%
    21:00 +9°C° 0 mm 5 m/S 739 mmHg 77%
    22:00 +9°C° 0 mm 5 m/S 739 mmHg 78%
    23:00 +9°C° 0 mm 5 m/S 739 mmHg 79%

    übermorgen, 17 September, Dienstag

    Zeit Temperatur Niederschläge Wind Luftdruck Luftfeuchtigkeit
    00:00 +8°C° 0 mm 5 m/S 739 mmHg 79%
    01:00 +8°C° 0 mm 5 m/S 739 mmHg 81%
    02:00 +8°C° 0 mm 5 m/S 739 mmHg 82%
    03:00 +7°C° 0 mm 5 m/S 739 mmHg 84%
    04:00 +7°C° 0 mm 5 m/S 739 mmHg 85%
    05:00 +7°C° 0 mm 5 m/S 739 mmHg 87%
    06:00 +7°C° 0 mm 5 m/S 739 mmHg 88%
    07:00 +8°C° 0 mm 5 m/S 739 mmHg 82%
    08:00 +9°C° 0 mm 6 m/S 739 mmHg 76%
    09:00 +10°C° 0 mm 7 m/S 739 mmHg 70%
    10:00 +11°C° 0.1 mm 7 m/S 739 mmHg 67%
    11:00 +12°C° 0.1 mm 7 m/S 739 mmHg 64%
    12:00 +12°C° 0.1 mm 7 m/S 739 mmHg 61%
    13:00 +14°C° 0.2 mm 7 m/S 739 mmHg 59%
    14:00 +14°C° 0.2 mm 6 m/S 739 mmHg 57%
    15:00 +14°C° 0.2 mm 6 m/S 739 mmHg 55%
    16:00 +13°C° 0.2 mm 6 m/S 739 mmHg 60%
    17:00 +12°C° 0.2 mm 5 m/S 739 mmHg 65%
    18:00 +11°C° 0.2 mm 4 m/S 739 mmHg 70%
    19:00 +10°C° 0 mm 4 m/S 739 mmHg 72%
    20:00 +8°C° 0 mm 4 m/S 739 mmHg 73%
    21:00 +7°C° 0 mm 4 m/S 739 mmHg 75%
    22:00 +7°C° 0 mm 4 m/S 739 mmHg 77%
    23:00 +8°C° 0 mm 3 m/S 739 mmHg 80%

    18 September, Mittwoch

    Zeit Temperatur Niederschläge Wind Luftdruck Luftfeuchtigkeit
    00:00 +7°C° 0 mm 3 m/S 738 mmHg 82%
    01:00 +7°C° 0 mm 3 m/S 738 mmHg 83%
    02:00 +7°C° 0 mm 3 m/S 738 mmHg 85%
    03:00 +7°C° 0 mm 3 m/S 738 mmHg 87%
    04:00 +7°C° 0 mm 3 m/S 738 mmHg 87%
    05:00 +7°C° 0 mm 3 m/S 737 mmHg 88%
    06:00 +7°C° 0 mm 3 m/S 737 mmHg 88%
    07:00 +8°C° 0.2 mm 3 m/S 737 mmHg 84%
    08:00 +8°C° 0.2 mm 4 m/S 737 mmHg 80%
    09:00 +10°C° 0.2 mm 4 m/S 737 mmHg 76%
    10:00 +11°C° 0.7 mm 4 m/S 737 mmHg 72%
    11:00 +12°C° 0.7 mm 5 m/S 737 mmHg 68%
    12:00 +13°C° 0.7 mm 5 m/S 737 mmHg 64%
    13:00 +13°C° 0.5 mm 5 m/S 737 mmHg 65%
    14:00 +12°C° 0.5 mm 5 m/S 736 mmHg 66%
    15:00 +12°C° 0.5 mm 5 m/S 736 mmHg 67%
    16:00 +10°C° 0.4 mm 5 m/S 736 mmHg 73%
    17:00 +10°C° 0.4 mm 4 m/S 736 mmHg 79%
    18:00 +7°C° 0.4 mm 4 m/S 736 mmHg 85%
    19:00 +7°C° 0 mm 4 m/S 737 mmHg 86%
    20:00 +7°C° 0 mm 4 m/S 737 mmHg 88%
    21:00 +7°C° 0 mm 4 m/S 738 mmHg 90%
    22:00 +6°C° 0 mm 4 m/S 738 mmHg 91%
    23:00 +6°C° 0 mm 4 m/S 739 mmHg 92%

    19 September, Donnerstag

    Zeit Temperatur Niederschläge Wind Luftdruck Luftfeuchtigkeit
    00:00 +6°C° 0 mm 4 m/S 739 mmHg 93%
    01:00 +5°C° 0 mm 4 m/S 740 mmHg 94%
    02:00 +5°C° 0 mm 4 m/S 740 mmHg 94%
    03:00 +4°C° 0 mm 4 m/S 741 mmHg 95%
    04:00 +4°C° 0 mm 4 m/S 742 mmHg 95%
    05:00 +4°C° 0 mm 4 m/S 742 mmHg 96%
    06:00 +4°C° 0 mm 4 m/S 743 mmHg 96%
    07:00 +5°C° 0 mm 4 m/S 744 mmHg 92%
    08:00 +6°C° 0 mm 4 m/S 745 mmHg 88%
    09:00 +7°C° 0 mm 4 m/S 745 mmHg 84%
    10:00 +8°C° 0 mm 4 m/S 746 mmHg 76%
    11:00 +10°C° 0 mm 4 m/S 746 mmHg 69%
    12:00 +12°C° 0 mm 4 m/S 747 mmHg 61%
    13:00 +12°C° 0.2 mm 4 m/S 747 mmHg 61%
    14:00 +12°C° 0.2 mm 4 m/S 747 mmHg 61%
    15:00 +12°C° 0.2 mm 4 m/S 747 mmHg 61%
    16:00 +11°C° 0.3 mm 3 m/S 747 mmHg 69%
    17:00 +10°C° 0.3 mm 3 m/S 747 mmHg 76%
    18:00 +9°C° 0.3 mm 3 m/S 747 mmHg 83%
    19:00 +8°C° 0.1 mm 2 m/S 747 mmHg 86%
    20:00 +7°C° 0.1 mm 2 m/S 747 mmHg 88%
    21:00 +8°C° 0.1 mm 1 m/S 747 mmHg 90%
    22:00 +8°C° 0 mm 1 m/S 747 mmHg 91%
    23:00 +6°C° 0 mm 2 m/S 747 mmHg 91%

    20 September, Freitag

    Zeit Temperatur Niederschläge Wind Luftdruck Luftfeuchtigkeit
    00:00 +6°C° 0 mm 2 m/S 747 mmHg 92%
    01:00 +6°C° 0.3 mm 2 m/S 747 mmHg 92%
    02:00 +7°C° 0.3 mm 2 m/S 747 mmHg 93%
    03:00 +7°C° 0.3 mm 2 m/S 746 mmHg 94%
    04:00 +7°C° 0.2 mm 2 m/S 747 mmHg 94%
    05:00 +7°C° 0.2 mm 3 m/S 747 mmHg 93%
    06:00 +5°C° 0.2 mm 3 m/S 747 mmHg 93%
    07:00 +7°C° 0.1 mm 3 m/S 747 mmHg 89%
    08:00 +7°C° 0.1 mm 3 m/S 748 mmHg 86%
    09:00 +7°C° 0.1 mm 3 m/S 748 mmHg 82%
    10:00 +8°C° 0.1 mm 3 m/S 748 mmHg 76%
    11:00 +8°C° 0.1 mm 4 m/S 749 mmHg 70%
    12:00 +8°C° 0.1 mm 4 m/S 749 mmHg 63%
    13:00 +10°C° 0 mm 4 m/S 749 mmHg 59%
    14:00 +10°C° 0 mm 4 m/S 749 mmHg 54%
    15:00 +10°C° 0 mm 4 m/S 749 mmHg 49%
    16:00 +9°C° 0 mm 3 m/S 749 mmHg 53%
    17:00 +8°C° 0 mm 2 m/S 750 mmHg 57%
    18:00 +7°C° 0 mm 2 m/S 750 mmHg 61%
    19:00 +6°C° 0 mm 2 m/S 750 mmHg 65%
    20:00 +5°C° 0 mm 2 m/S 751 mmHg 69%
    21:00 +4°C° 0 mm 2 m/S 751 mmHg 73%
    22:00 +4°C° 0 mm 2 m/S 751 mmHg 74%
    23:00 +3°C° 0 mm 2 m/S 751 mmHg 75%
    Mehr zeigen